sat.trackr.live / text

‹ back to catalog

ONEWEB-0573

NORAD 55152 · 2023-004N

PAYLOAD ACTIVE UNKNOWN

§ Identity

Operator
Country
UK
Launch date
2023-01-10
Launch site
AFETR
Launch vehicle
Mass (kg)
RCS (m²)

Purposes: comms

External: N2YO · Heavens-Above · Gunter

§ Orbital elements

Epoch: 2026-05-25T01:09:51.989760Z

Period
109.20 min
Inclination
87.9161°
Eccentricity
0.0001235
Mean motion
13.18686207 rev/d
Perigee alt
1,188.8 km
Apogee alt
1,190.7 km
Semi-major
7,567.9 km
B*
3.3199e-5
RAAN
340.0759°
Arg perigee
114.2986°
Mean anomaly
245.8275°
Rev number
16,664

§ Raw data

ONEWEB-05731 55152U 23004N   26145.04851840  .00000026  00000+0  33199-4 0  99912 55152  87.9161 340.0759 0001235 114.2986 245.8275 13.18686207166640

JSON: /api/v1/satellites/55152 · /tle

For live sub-satellite position, see the globe view (requires WebGL).

§ Visibility from observer

Set your observer location to see the next 7 days of passes ≥ 10°. The values pass through the URL so the page stays shareable.

No JS? Fill the form by hand. The geolocation button needs JavaScript.